Weather History for Millville, NJ

Change the Weather History Date:

Thursday, February 14, 2013

  Actual Average Record
Temperature  
Mean Temperature 38 °F -  
Max Temperature 46 °F 43 °F 68 °F (1990)
Min Temperature 30 °F 25 °F -5 °F (1979)
Degree Days  
Heating Degree Days 27    
Moisture  
Dew Point 32 °F    
Average Humidity 84    
Maximum Humidity 100    
Minimum Humidity 60    
Precipitation  
Precipitation 0.08 in - - ()
Sea Level Pressure  
Sea Level Pressure 29.91 in    
Wind  
Wind Speed 5 mph (West)    
Max Wind Speed 8 mph    
Max Gust Speed -    
Visibility 4 miles    
Events Snow    
Averages and records for this station are not official NWS values.
T = Trace of Precipitation, MM = Missing Value Source: NWS Daily Summary

Daily Weather History Graph

Daily Weather History Graph

Search for Another Location

Airport:

Trip Planner

Search our weather history database for the weather conditions in past years. The results will help you decide how hot, cold, wet, or windy it might be!

Date:

Astronomy

Feb. 14, 2013 Rise Set
Actual Time 6:53 AM EST 5:36 PM EST
Civil Twilight 6:25 AM EST 6:03 PM EST
Nautical Twilight 5:54 AM EST 6:35 PM EST
Astronomical Twilight 5:23 AM EST 7:06 PM EST
Moon 8:55 AM EST (2/14) 10:34 PM EST (2/14)
Length of Visible Light 11h 38m
Length of Day
10h 43m
Waxing Crescent, 21% of the Moon is Illuminated
Feb 14
Waxing Crescent
Feb 17
First Quarter
Feb 25
Full
Mar 4
Last Quarter
Mar 11
New

Hourly Weather History & Observations

Time (EST) Temp. Windchill Dew Point Humidity Pressure Visibility Wind Dir Wind Speed Gust Speed Precip Events Conditions
12:07 AM 33.8 °F 28.6 °F 32.0 °F 93% 29.71 in 2.5 mi North 5.8 mph - 0.00 in Snow Light Snow
12:14 AM 33.8 °F 27.7 °F 32.0 °F 93% 29.71 in 3.0 mi North 6.9 mph - 0.01 in Snow Light Snow
12:54 AM 33.1 °F 26.1 °F 32.0 °F 96% 29.73 in 4.0 mi NNW 8.1 mph - 0.03 in   Overcast
1:54 AM 33.1 °F 28.7 °F 32.0 °F 96% 29.78 in 4.0 mi WNW 4.6 mph - 0.04 in   Overcast
2:11 AM 33.8 °F 28.6 °F 32.0 °F 93% 29.78 in 4.0 mi NW 5.8 mph - 0.01 in   Overcast
2:43 AM 33.8 °F 28.6 °F 32.0 °F 93% 29.80 in 4.0 mi WNW 5.8 mph - 0.01 in   Overcast
2:52 AM 33.8 °F 30.8 °F 32.0 °F 93% 29.80 in 4.0 mi West 3.5 mph - 0.01 in   Overcast
2:54 AM 34.0 °F 31.0 °F 32.0 °F 92% 29.80 in 4.0 mi WNW 3.5 mph - 0.01 in   Overcast
3:03 AM 33.8 °F - 32.0 °F 93% 29.80 in 4.0 mi Calm Calm - N/A   Overcast
3:29 AM 33.8 °F 30.8 °F 32.0 °F 93% 29.82 in 4.0 mi West 3.5 mph - N/A   Overcast
3:43 AM 33.8 °F 30.8 °F 32.0 °F 93% 29.82 in 3.0 mi West 3.5 mph - N/A   Overcast
3:54 AM 33.1 °F - 32.0 °F 96% 29.82 in 3.0 mi Calm Calm - N/A   Overcast
4:21 AM 33.8 °F 29.6 °F 32.0 °F 93% 29.83 in 4.0 mi WNW 4.6 mph - N/A   Overcast
4:32 AM 33.8 °F 28.6 °F 32.0 °F 93% 29.84 in 4.0 mi NW 5.8 mph - N/A   Overcast
4:54 AM 34.0 °F 29.8 °F 32.0 °F 92% 29.85 in 4.0 mi WNW 4.6 mph - N/A   Overcast
5:37 AM 33.8 °F 27.0 °F 30.2 °F 87% 29.87 in 2.5 mi West 8.1 mph - N/A   Scattered Clouds
5:54 AM 33.1 °F 26.9 °F 30.9 °F 92% 29.89 in 2.5 mi West 6.9 mph - N/A   Clear
6:21 AM 33.8 °F 28.6 °F 30.2 °F 87% 29.90 in 3.0 mi WNW 5.8 mph - N/A   Clear
6:33 AM 33.8 °F 27.7 °F 30.2 °F 87% 29.90 in 2.5 mi WNW 6.9 mph - N/A   Clear
7:02 AM 30.2 °F 25.4 °F 30.2 °F 100% 29.91 in 1.5 mi West 4.6 mph - N/A   Clear
7:52 AM 33.8 °F 28.6 °F 30.2 °F 87% 29.94 in 2.0 mi WNW 5.8 mph - N/A   Scattered Clouds
7:54 AM 34.0 °F 28.8 °F 32.0 °F 92% 29.94 in 2.0 mi NW 5.8 mph - N/A   Scattered Clouds
8:54 AM 35.1 °F 32.2 °F 33.1 °F 92% 29.97 in 2.5 mi WSW 3.5 mph - N/A   Clear
9:26 AM 37.4 °F 32.8 °F 33.8 °F 87% 29.97 in 3.0 mi West 5.8 mph - N/A   Partly Cloudy
9:54 AM 39.0 °F 34.8 °F 33.1 °F 79% 29.98 in 3.0 mi West 5.8 mph - N/A   Haze
10:54 AM 41.0 °F 36.4 °F 33.1 °F 73% 29.99 in 5.0 mi NW 6.9 mph - N/A   Haze
11:04 AM 42.8 °F 40.1 °F 33.8 °F 70% 29.99 in 5.0 mi NNW 4.6 mph - N/A   Haze
11:47 AM 42.8 °F 41.1 °F 33.8 °F 70% 29.98 in 6.0 mi Variable 3.5 mph - N/A   Haze
11:54 AM 43.0 °F 38.8 °F 34.0 °F 71% 29.98 in 5.0 mi North 6.9 mph - N/A   Haze
12:19 PM 42.8 °F 38.6 °F 33.8 °F 70% 29.97 in 6.0 mi West 6.9 mph - N/A   Haze
12:26 PM 42.8 °F 38.6 °F 33.8 °F 70% 29.97 in 6.0 mi West 6.9 mph - N/A   Haze
12:50 PM 42.8 °F 39.3 °F 33.8 °F 70% 29.97 in 6.0 mi WSW 5.8 mph - N/A   Haze
12:54 PM 44.1 °F 41.5 °F 33.1 °F 65% 29.97 in 7.0 mi West 4.6 mph - N/A   Partly Cloudy
1:54 PM 46.0 °F 43.1 °F 34.0 °F 63% 29.97 in 7.0 mi Variable 5.8 mph - N/A   Mostly Cloudy
2:33 PM 44.6 °F 41.4 °F 33.8 °F 66% 29.97 in 6.0 mi WSW 5.8 mph - N/A   Haze
2:54 PM 44.1 °F 41.5 °F 33.1 °F 65% 29.98 in 7.0 mi WNW 4.6 mph - N/A   Partly Cloudy
3:54 PM 44.1 °F 40.1 °F 30.9 °F 60% 29.99 in 8.0 mi WSW 6.9 mph - N/A   Clear
4:54 PM 43.0 °F 39.5 °F 30.9 °F 62% 29.99 in 8.0 mi WSW 5.8 mph - N/A   Clear
5:54 PM 37.9 °F - 30.9 °F 76% 30.00 in 8.0 mi Calm Calm - N/A   Clear
6:54 PM 37.0 °F - 32.0 °F 82% 30.02 in 7.0 mi Calm Calm - N/A   Clear
7:54 PM 36.0 °F 32.1 °F 32.0 °F 86% 30.02 in 5.0 mi South 4.6 mph - N/A   Clear
8:54 PM 35.1 °F - 32.0 °F 89% 30.03 in 4.0 mi Calm Calm - N/A   Clear
9:54 PM 35.1 °F 32.2 °F 34.0 °F 96% 30.04 in 2.5 mi SSW 3.5 mph - N/A   Clear
10:54 PM 35.1 °F 32.2 °F 33.1 °F 92% 30.03 in 2.0 mi SSW 3.5 mph - N/A   Clear
11:54 PM 35.1 °F 32.2 °F 34.0 °F 96% 30.04 in 2.0 mi SSW 3.5 mph - N/A   Clear